Total_Precipitation_Accumulation
0.03 0.02 0.00 0.00 0.00 0.00 0.00 0.00 0.00 0.00 0.03 0.04 0.05 0.09 0.18 0.24 0.18 0.04 0.00 0.00 0.00 0.00 0.00 0.00 0.00 0.00 0.00 0.00 0.00 0.00 0.00 0.00 0.00 0.00 0.00 0.00 0.00 0.00 0.00 0.00 0.00 0.00 0.00 0.00 0.00
0.04 0.03 0.02 0.00 0.00 0.00 0.00 0.00 0.00 0.00 0.00 0.00 0.02 0.05 0.08 0.08 0.09 0.09 0.00 0.00 0.00 0.00 0.00 0.00 0.00 0.00 0.00 0.00 0.00 0.00 0.00 0.00 0.00 0.00 0.00 0.00 0.00 0.00 0.00 0.00 0.00 0.00 0.00 0.00 0.00
0.05 0.04 0.03 0.01 0.00 0.00 0.00 0.00 0.00 0.00 0.00 0.00 0.00 0.01 0.07 0.06 0.06 0.02 0.00 0.00 0.04 0.09 0.00 0.00 0.00 0.01 0.01 0.00 0.00 0.00 0.00 0.00 0.00 0.00 0.00 0.00 0.00 0.00 0.00 0.00 0.00 0.00 0.00 0.00 0.00
0.06 0.05 0.04 0.03 0.01 0.00 0.00 0.00 0.00 0.00 0.00 0.00 0.00 0.00 0.03 0.07 0.02 0.00 0.00 0.00 0.00 0.13 0.01 0.00 0.00 0.03 0.02 0.01 0.00 0.00 0.00 0.00 0.00 0.00 0.00 0.00 0.00 0.00 0.00 0.00 0.00 0.00 0.00 0.00 0.00
0.09 0.08 0.07 0.07 0.03 0.01 0.00 0.00 0.00 0.00 0.00 0.01 0.02 0.03 0.02 0.04 0.01 0.00 0.00 0.00 0.00 0.05 0.03 0.00 0.00 0.01 0.01 0.00 0.01 0.00 0.00 0.00 0.00 0.00 0.00 0.00 0.00 0.00 0.00 0.00 0.00 0.00 0.00 0.00 0.00
0.10 0.10 0.07 0.07 0.06 0.02 0.00 0.00 0.01 0.00 0.00 0.01 0.04 0.05 0.03 0.02 0.00 0.00 0.00 0.00 0.00 0.01 0.03 0.02 0.01 0.01 0.01 0.01 0.03 0.00 0.00 0.00 0.00 0.00 0.00 0.00 0.00 0.00 0.00 0.00 0.00 0.00 0.00 0.00 0.00
0.12 0.13 0.10 0.07 0.07 0.04 0.01 0.01 0.02 0.02 0.00 0.02 0.05 0.02 0.03 0.00 0.00 0.00 0.00 0.00 0.00 0.00 0.01 0.02 0.02 0.10 0.08 0.05 0.01 0.02 0.03 0.01 0.00 0.00 0.00 0.00 0.00 0.00 0.00 0.00 0.00 0.00 0.00 0.00 0.00
0.13 0.13 0.13 0.11 0.10 0.07 0.03 0.02 0.04 0.08 0.04 0.03 0.01 0.04 0.04 0.00 0.00 0.00 0.00 0.00 0.00 0.00 0.00 0.00 0.01 0.02 0.06 0.07 0.05 0.09 0.11 0.03 0.00 0.00 0.00 0.00 0.00 0.00 0.00 0.00 0.00 0.00 0.00 0.00 0.00
0.14 0.13 0.15 0.17 0.13 0.10 0.08 0.04 0.04 0.05 0.13 0.07 0.01 0.04 0.01 0.00 0.00 0.00 0.00 0.00 0.00 0.00 0.00 0.00 0.02 0.05 0.08 0.13 0.15 0.16 0.06 0.02 0.00 0.00 0.00 0.00 0.00 0.00 0.00 0.00 0.00 0.00 0.00 0.00 0.00
0.15 0.15 0.17 0.20 0.20 0.13 0.12 0.15 0.13 0.12 0.13 0.14 0.04 0.05 0.00 0.00 0.00 0.00 0.00 0.00 0.00 0.01 0.03 0.02 0.04 0.05 0.08 0.17 0.14 0.06 0.05 0.03 0.01 0.00 0.01 0.00 0.00 0.00 0.00 0.00 0.00 0.00 0.00 0.00 0.00
0.19 0.18 0.19 0.25 0.25 0.19 0.11 0.07 0.04 0.06 0.08 0.02 0.01 0.00 0.00 0.00 0.00 0.00 0.00 0.00 0.00 0.02 0.04 0.03 0.07 0.04 0.04 0.05 0.06 0.05 0.07 0.04 0.01 0.01 0.02 0.00 0.00 0.00 0.00 0.00 0.00 0.00 0.00 0.00 0.00
0.19 0.21 0.23 0.22 0.31 0.44 0.22 0.05 0.01 0.01 0.05 0.02 0.00 0.00 0.00 0.00 0.00 0.00 0.00 0.00 0.01 0.01 0.04 0.12 0.08 0.00 0.05 0.05 0.08 0.11 0.12 0.04 0.03 0.02 0.04 0.01 0.00 0.00 0.00 0.00 0.00 0.00 0.00 0.00 0.00
0.19 0.23 0.26 0.34 0.50 0.70 0.29 0.04 0.02 0.08 0.31 0.16 0.02 0.01 0.00 0.02 0.02 0.03 0.00 0.00 0.01 0.02 0.06 0.09 0.03 0.01 0.10 0.13 0.12 0.10 0.14 0.10 0.04 0.06 0.05 0.04 0.01 0.00 0.00 0.00 0.00 0.00 0.00 0.00 0.00
0.30 0.29 0.33 0.44 0.95 0.60 0.35 0.07 0.06 0.22 0.63 0.13 0.02 0.04 0.07 0.14 0.10 0.00 0.00 0.02 0.06 0.03 0.07 0.12 0.02 0.08 0.12 0.32 0.12 0.11 0.07 0.11 0.17 0.15 0.04 0.06 0.03 0.00 0.00 0.00 0.00 0.00 0.00 0.00 0.00
0.52 0.38 0.36 0.66 0.92 0.77 0.27 0.08 0.11 0.37 0.40 0.02 0.01 0.01 0.04 0.12 0.07 0.01 0.00 0.09 0.08 0.08 0.20 0.18 0.02 0.09 0.13 0.32 0.09 0.17 0.07 0.11 0.23 0.35 0.34 0.06 0.08 0.01 0.00 0.00 0.00 0.00 0.00 0.00 0.00
0.63 0.70 0.61 0.70 0.73 0.64 0.23 0.08 0.15 0.32 0.16 0.02 0.02 0.03 0.09 0.06 0.05 0.08 0.05 0.11 0.18 0.41 0.33 0.09 0.07 0.20 0.16 0.17 0.18 0.18 0.24 0.25 0.46 0.46 0.65 0.29 0.06 0.01 0.00 0.00 0.00 0.00 0.00 0.00 0.00
0.73 0.96 0.93 0.53 0.57 0.49 0.44 0.24 0.24 0.16 0.03 0.11 0.07 0.08 0.06 0.05 0.05 0.13 0.16 0.16 0.32 0.61 0.51 0.40 0.28 0.29 0.22 0.32 0.55 0.46 0.57 0.78 0.70 0.83 0.41 0.15 0.16 0.06 0.00 0.00 0.00 0.00 0.00 0.00 0.00
0.96 1.14 1.09 0.73 0.55 0.49 0.58 0.30 0.21 0.03 0.04 0.08 0.10 0.18 0.24 0.08 0.08 0.09 0.32 0.17 0.12 0.33 0.47 0.30 0.27 0.28 0.25 0.33 0.68 0.58 0.54 0.60 0.37 0.28 0.17 0.08 0.26 0.05 0.00 0.00 0.00 0.00 0.00 0.00 0.00
1.27 1.52 1.20 1.00 0.79 0.66 0.49 0.30 0.06 0.07 0.09 0.12 0.18 0.22 0.22 0.08 0.08 0.10 0.16 0.11 0.02 0.10 0.39 0.27 0.26 0.21 0.19 0.13 0.42 0.65 0.61 0.35 0.47 0.17 0.25 0.09 0.08 0.04 0.01 0.00 0.00 0.00 0.00 0.00 0.00
1.68 1.97 1.06 0.79 1.10 0.75 0.48 0.20 0.04 0.09 0.20 0.16 0.12 0.05 0.04 0.02 0.03 0.04 0.04 0.01 0.00 0.01 0.16 0.28 0.40 0.46 0.38 0.32 0.40 0.52 0.31 0.45 0.95 0.58 0.18 0.06 0.02 0.04 0.00 0.00 0.00 0.00 0.00 0.00 0.00
1.54 1.74 1.07 0.90 1.47 1.23 0.48 0.13 0.05 0.08 0.13 0.13 0.05 0.02 0.01 0.00 0.00 0.00 0.01 0.00 0.00 0.00 0.14 0.33 0.55 0.66 0.85 0.53 0.34 0.55 0.55 0.33 0.44 0.39 0.23 0.10 0.02 0.00 0.00 0.01 0.01 0.01 0.00 0.00 0.00
1.51 1.20 1.17 1.29 1.70 0.93 0.17 0.14 0.12 0.13 0.17 0.13 0.10 0.02 0.00 0.00 0.00 0.00 0.00 0.01 0.00 0.02 0.16 0.32 0.65 0.69 0.58 0.16 0.11 0.19 0.23 0.16 0.45 0.35 0.23 0.18 0.07 0.00 0.01 0.01 0.01 0.01 0.01 0.01 0.01
1.38 1.02 1.71 0.88 0.67 0.35 0.09 0.20 0.20 0.08 0.13 0.15 0.07 0.01 0.00 0.00 0.00 0.00 0.00 0.00 0.00 0.02 0.19 0.44 0.98 0.76 0.61 0.44 0.47 0.63 0.32 0.33 0.44 0.61 0.41 0.23 0.10 0.00 0.00 0.00 0.01 0.01 0.01 0.01 0.01
1.42 1.22 2.65 1.83 0.48 0.08 0.15 0.24 0.23 0.06 0.07 0.13 0.10 0.03 0.04 0.02 0.00 0.00 0.00 0.00 0.00 0.00 0.16 0.72 0.80 0.85 0.68 0.61 0.83 0.61 0.30 0.44 0.67 0.58 0.26 0.11 0.06 0.02 0.01 0.01 0.01 0.02 0.03 0.02 0.01
0.94 0.58 0.62 0.78 0.40 0.05 0.23 0.25 0.34 0.23 0.12 0.17 0.11 0.04 0.06 0.02 0.00 0.00 0.00 0.00 0.00 0.00 0.16 0.66 1.15 1.27 0.54 0.32 0.69 0.56 0.27 0.33 0.62 0.35 0.19 0.06 0.05 0.03 0.03 0.01 0.01 0.06 0.05 0.01 0.00
0.59 0.45 0.07 0.03 0.03 0.02 0.16 0.23 0.33 0.34 0.27 0.19 0.13 0.04 0.04 0.04 0.00 0.00 0.00 0.00 0.00 0.01 0.15 0.55 0.94 0.80 0.33 0.20 0.38 0.39 0.20 0.25 0.46 0.36 0.23 0.10 0.10 0.06 0.03 0.00 0.01 0.15 0.06 0.02 0.01
0.57 0.43 0.10 0.05 0.03 0.03 0.06 0.12 0.22 0.37 0.24 0.09 0.08 0.11 0.06 0.03 0.01 0.00 0.00 0.00 0.00 0.01 0.07 0.33 0.62 0.79 0.63 0.41 0.53 0.41 0.14 0.23 0.37 0.32 0.20 0.10 0.09 0.02 0.02 0.06 0.12 0.23 0.02 0.01 0.00